Time,TemperatureF,DewpointF,PressureIn,WindDirection,WindDirectionDegrees,WindSpeedMPH,WindSpeedGustMPH,Humidity,HourlyPrecipIn,Conditions,Clouds,dailyrainin,SoftwareType,DateUTC
2013-04-12 00:00:00,42.5,32.7,29.75,North,0,0.0,0.0,68,0.00,,,0.08,WUHU216HW,2013-04-12 05:00:00,
2013-04-12 00:05:00,42.5,33.1,29.75,North,0,0.0,0.0,69,0.00,,,0.00,WUHU216HW,2013-04-12 05:05:00,
2013-04-12 00:10:00,42.5,33.1,29.75,North,0,0.0,0.0,69,0.00,,,0.00,WUHU216HW,2013-04-12 05:10:00,
2013-04-12 00:15:00,42.5,33.1,29.75,North,0,0.0,0.0,69,0.00,,,0.00,WUHU216HW,2013-04-12 05:15:00,
2013-04-12 00:20:00,42.5,33.1,29.75,North,0,0.0,0.0,69,0.00,,,0.00,WUHU216HW,2013-04-12 05:20:00,
2013-04-12 00:25:00,42.5,33.1,29.75,North,0,0.0,0.0,69,0.00,,,0.00,WUHU216HW,2013-04-12 05:25:00,
2013-04-12 00:30:00,42.5,33.1,29.75,North,0,0.0,0.0,69,0.00,,,0.00,WUHU216HW,2013-04-12 05:30:00,
2013-04-12 00:35:00,42.5,33.1,29.74,North,0,0.0,0.0,69,0.00,,,0.00,WUHU216HW,2013-04-12 05:35:00,
2013-04-12 00:40:00,42.5,33.1,29.75,North,0,0.0,0.0,69,0.00,,,0.00,WUHU216HW,2013-04-12 05:40:00,
2013-04-12 00:45:00,42.5,33.1,29.75,North,0,0.0,0.0,69,0.00,,,0.00,WUHU216HW,2013-04-12 05:45:00,
2013-04-12 00:50:00,42.5,33.1,29.75,North,0,0.0,0.0,69,0.00,,,0.00,WUHU216HW,2013-04-12 05:50:00,
2013-04-12 00:55:00,42.5,33.1,29.75,North,0,0.0,0.0,69,0.00,,,0.00,WUHU216HW,2013-04-12 05:55:00,
2013-04-12 01:00:00,42.5,33.1,29.75,North,0,0.0,0.0,69,0.00,,,0.00,WUHU216HW,2013-04-12 06:00:00,
2013-04-12 01:05:00,42.5,33.1,29.74,North,0,0.0,0.0,69,0.00,,,0.00,WUHU216HW,2013-04-12 06:05:00,
2013-04-12 01:10:00,42.5,33.1,29.74,North,0,0.0,0.0,69,0.00,,,0.00,WUHU216HW,2013-04-12 06:10:00,
2013-04-12 01:15:00,42.7,33.3,29.74,North,0,0.0,0.0,69,0.00,,,0.00,WUHU216HW,2013-04-12 06:15:00,
2013-04-12 01:20:00,42.7,33.7,29.74,North,0,0.0,0.0,70,0.00,,,0.00,WUHU216HW,2013-04-12 06:20:00,
2013-04-12 01:25:00,42.7,33.7,29.74,North,0,0.0,0.0,70,0.00,,,0.00,WUHU216HW,2013-04-12 06:25:00,
2013-04-12 01:30:00,42.7,33.7,29.74,North,0,0.0,0.0,70,0.00,,,0.00,WUHU216HW,2013-04-12 06:30:00,
2013-04-12 01:35:00,42.7,33.7,29.74,North,0,0.0,0.0,70,0.00,,,0.00,WUHU216HW,2013-04-12 06:35:00,
2013-04-12 01:40:00,42.7,33.7,29.74,North,0,0.0,0.0,70,0.00,,,0.00,WUHU216HW,2013-04-12 06:40:00,
2013-04-12 01:45:00,42.7,33.7,29.74,North,0,0.0,0.0,70,0.00,,,0.00,WUHU216HW,2013-04-12 06:45:00,
2013-04-12 01:50:00,42.5,33.9,29.74,North,0,0.0,0.0,71,0.00,,,0.00,WUHU216HW,2013-04-12 06:50:00,
2013-04-12 01:55:00,42.5,33.5,29.74,North,0,0.0,0.0,70,0.00,,,0.00,WUHU216HW,2013-04-12 06:55:00,
2013-04-12 02:00:00,42.5,33.5,29.74,North,0,0.0,0.0,70,0.00,,,0.00,WUHU216HW,2013-04-12 07:00:00,
2013-04-12 02:05:00,42.5,33.5,29.74,North,0,0.0,0.0,70,0.00,,,0.00,WUHU216HW,2013-04-12 07:05:00,
2013-04-12 02:10:00,42.3,33.3,29.74,North,0,0.0,0.0,70,0.00,,,0.00,WUHU216HW,2013-04-12 07:10:00,
2013-04-12 02:15:00,42.5,33.5,29.74,North,0,0.0,0.0,70,0.00,,,0.00,WUHU216HW,2013-04-12 07:15:00,
2013-04-12 02:20:00,42.5,33.5,29.74,North,0,0.0,0.0,70,0.00,,,0.00,WUHU216HW,2013-04-12 07:20:00,
2013-04-12 02:25:00,42.5,33.5,29.74,North,0,0.0,0.0,70,0.00,,,0.00,WUHU216HW,2013-04-12 07:25:00,
2013-04-12 02:30:00,42.3,33.3,29.74,North,0,0.0,0.0,70,0.00,,,0.00,WUHU216HW,2013-04-12 07:30:00,
2013-04-12 02:35:00,42.3,33.7,29.74,North,0,0.0,0.0,71,0.00,,,0.00,WUHU216HW,2013-04-12 07:35:00,
2013-04-12 02:40:00,42.1,33.1,29.74,North,0,0.0,0.0,70,0.00,,,0.00,WUHU216HW,2013-04-12 07:40:00,
2013-04-12 02:45:00,41.9,33.3,29.74,North,0,0.0,0.0,71,0.00,,,0.00,WUHU216HW,2013-04-12 07:45:00,
2013-04-12 02:50:00,41.9,33.3,29.74,North,0,0.0,0.0,71,0.00,,,0.00,WUHU216HW,2013-04-12 07:50:00,
2013-04-12 02:55:00,41.8,33.1,29.73,North,0,0.0,0.0,71,0.00,,,0.00,WUHU216HW,2013-04-12 07:55:00,
2013-04-12 03:00:00,41.8,33.1,29.74,North,0,0.0,0.0,71,0.00,,,0.00,WUHU216HW,2013-04-12 08:00:00,
2013-04-12 03:05:00,41.4,32.8,29.74,North,0,0.0,0.0,71,0.00,,,0.00,WUHU216HW,2013-04-12 08:05:00,
2013-04-12 03:10:00,41.2,32.6,29.74,North,0,0.0,0.0,71,0.00,,,0.00,WUHU216HW,2013-04-12 08:10:00,
2013-04-12 03:15:00,41.0,32.4,29.74,North,0,0.0,0.0,71,0.00,,,0.00,WUHU216HW,2013-04-12 08:15:00,
2013-04-12 03:20:00,41.0,32.4,29.74,North,0,0.0,0.0,71,0.00,,,0.00,WUHU216HW,2013-04-12 08:20:00,
2013-04-12 03:25:00,40.9,32.2,29.74,North,0,0.0,0.0,71,0.00,,,0.00,WUHU216HW,2013-04-12 08:25:00,
2013-04-12 03:30:00,40.7,32.1,29.74,North,0,0.0,0.0,71,0.00,,,0.00,WUHU216HW,2013-04-12 08:30:00,
2013-04-12 03:35:00,40.7,32.1,29.74,North,0,0.0,0.0,71,0.00,,,0.00,WUHU216HW,2013-04-12 08:35:00,
2013-04-12 03:40:00,40.5,31.5,29.74,North,0,0.0,0.0,70,0.00,,,0.00,WUHU216HW,2013-04-12 08:40:00,
2013-04-12 03:45:00,40.5,31.9,29.74,North,0,0.0,0.0,71,0.00,,,0.00,WUHU216HW,2013-04-12 08:45:00,
2013-04-12 03:50:00,40.5,31.9,29.74,North,0,0.0,0.0,71,0.00,,,0.00,WUHU216HW,2013-04-12 08:50:00,
2013-04-12 03:55:00,40.3,31.7,29.74,North,0,0.0,0.0,71,0.00,,,0.00,WUHU216HW,2013-04-12 08:55:00,
2013-04-12 04:00:00,40.1,31.5,29.74,North,0,0.0,0.0,71,0.00,,,0.00,WUHU216HW,2013-04-12 09:00:00,
2013-04-12 04:05:00,40.1,31.8,29.74,North,0,0.0,0.0,72,0.00,,,0.00,WUHU216HW,2013-04-12 09:05:00,
2013-04-12 04:10:00,40.1,31.8,29.74,North,0,0.0,0.0,72,0.00,,,0.00,WUHU216HW,2013-04-12 09:10:00,
2013-04-12 04:15:00,40.0,31.6,29.74,North,0,0.0,0.0,72,0.00,,,0.00,WUHU216HW,2013-04-12 09:15:00,
2013-04-12 04:20:00,40.0,32.0,29.74,North,0,0.0,0.0,73,0.00,,,0.00,WUHU216HW,2013-04-12 09:20:00,
2013-04-12 04:25:00,39.8,31.8,29.74,North,0,0.0,0.0,73,0.00,,,0.00,WUHU216HW,2013-04-12 09:25:00,
2013-04-12 04:30:00,39.8,31.8,29.74,North,0,0.0,0.0,73,0.00,,,0.00,WUHU216HW,2013-04-12 09:30:00,
2013-04-12 04:35:00,39.6,32.0,29.74,North,0,0.0,0.0,74,0.00,,,0.00,WUHU216HW,2013-04-12 09:35:00,
2013-04-12 04:40:00,39.4,31.8,29.74,North,0,0.0,0.0,74,0.00,,,0.00,WUHU216HW,2013-04-12 09:40:00,
2013-04-12 04:45:00,39.2,31.2,29.74,North,0,0.0,0.0,73,0.00,,,0.00,WUHU216HW,2013-04-12 09:45:00,
2013-04-12 04:50:00,39.2,31.6,29.74,North,0,0.0,0.0,74,0.00,,,0.00,WUHU216HW,2013-04-12 09:50:00,
2013-04-12 04:55:00,39.1,31.4,29.74,North,0,0.0,0.0,74,0.00,,,0.00,WUHU216HW,2013-04-12 09:55:00,
2013-04-12 05:00:00,39.1,31.4,29.74,North,0,0.0,0.0,74,0.00,,,0.00,WUHU216HW,2013-04-12 10:00:00,
2013-04-12 05:05:00,39.1,31.4,29.74,North,0,0.0,0.0,74,0.00,,,0.00,WUHU216HW,2013-04-12 10:05:00,
2013-04-12 05:10:00,38.9,31.2,29.74,North,0,0.0,0.0,74,0.00,,,0.00,WUHU216HW,2013-04-12 10:10:00,
2013-04-12 05:15:00,38.9,31.2,29.74,North,0,0.0,0.0,74,0.00,,,0.00,WUHU216HW,2013-04-12 10:15:00,
2013-04-12 05:20:00,38.7,31.2,29.75,North,0,0.0,0.0,74,0.00,,,0.00,WUHU216HW,2013-04-12 10:20:00,
2013-04-12 05:25:00,38.7,31.2,29.75,North,0,0.0,0.0,74,0.00,,,0.00,WUHU216HW,2013-04-12 10:25:00,
2013-04-12 05:30:00,38.5,31.0,29.75,North,0,0.0,0.0,74,0.00,,,0.00,WUHU216HW,2013-04-12 10:30:00,
2013-04-12 05:35:00,38.7,31.2,29.75,North,0,0.0,0.0,74,0.00,,,0.00,WUHU216HW,2013-04-12 10:35:00,
2013-04-12 05:40:00,38.5,31.0,29.75,North,0,0.0,0.0,74,0.00,,,0.00,WUHU216HW,2013-04-12 10:40:00,
2013-04-12 05:45:00,38.5,31.0,29.75,North,0,0.0,0.0,74,0.00,,,0.00,WUHU216HW,2013-04-12 10:45:00,
2013-04-12 05:50:00,38.5,31.0,29.76,North,0,0.0,0.0,74,0.00,,,0.00,WUHU216HW,2013-04-12 10:50:00,
2013-04-12 05:55:00,38.3,30.8,29.76,North,0,0.0,0.0,74,0.00,,,0.00,WUHU216HW,2013-04-12 10:55:00,
2013-04-12 06:00:00,38.3,30.8,29.76,North,0,0.0,0.0,74,0.00,,,0.00,WUHU216HW,2013-04-12 11:00:00,
2013-04-12 06:05:00,38.2,30.6,29.76,North,0,0.0,0.0,74,0.00,,,0.00,WUHU216HW,2013-04-12 11:05:00,
2013-04-12 06:10:00,38.2,30.6,29.76,North,0,0.0,0.0,74,0.00,,,0.00,WUHU216HW,2013-04-12 11:10:00,
2013-04-12 06:15:00,38.2,30.6,29.76,North,0,0.0,0.0,74,0.00,,,0.00,WUHU216HW,2013-04-12 11:15:00,
2013-04-12 06:20:00,38.0,30.8,29.77,North,0,0.0,0.0,75,0.00,,,0.00,WUHU216HW,2013-04-12 11:20:00,
2013-04-12 06:25:00,37.8,30.6,29.77,North,0,0.0,0.0,75,0.00,,,0.00,WUHU216HW,2013-04-12 11:25:00,
2013-04-12 06:30:00,37.8,30.6,29.77,North,0,0.0,0.0,75,0.00,,,0.00,WUHU216HW,2013-04-12 11:30:00,
2013-04-12 06:35:00,37.8,30.6,29.77,North,0,0.0,0.0,75,0.00,,,0.00,WUHU216HW,2013-04-12 11:35:00,
2013-04-12 06:40:00,37.8,30.6,29.77,North,0,0.0,0.0,75,0.00,,,0.00,WUHU216HW,2013-04-12 11:40:00,
2013-04-12 06:45:00,37.8,30.6,29.78,North,0,0.0,0.0,75,0.00,,,0.00,WUHU216HW,2013-04-12 11:45:00,
2013-04-12 06:50:00,37.8,30.9,29.78,North,0,0.0,0.0,76,0.00,,,0.00,WUHU216HW,2013-04-12 11:50:00,
2013-04-12 06:55:00,37.8,30.9,29.78,North,0,0.0,0.0,76,0.00,,,0.00,WUHU216HW,2013-04-12 11:55:00,
2013-04-12 07:00:00,37.8,30.9,29.78,North,0,0.0,0.0,76,0.00,,,0.00,WUHU216HW,2013-04-12 12:00:00,
2013-04-12 07:05:00,37.8,30.9,29.79,North,0,0.0,0.0,76,0.00,,,0.00,WUHU216HW,2013-04-12 12:05:00,
2013-04-12 07:10:00,37.8,30.9,29.79,North,0,0.0,0.0,76,0.00,,,0.00,WUHU216HW,2013-04-12 12:10:00,
2013-04-12 07:15:00,38.0,31.1,29.79,North,0,0.0,0.0,76,0.00,,,0.00,WUHU216HW,2013-04-12 12:15:00,
2013-04-12 07:20:00,38.2,31.2,29.79,North,0,0.0,0.0,76,0.00,,,0.00,WUHU216HW,2013-04-12 12:20:00,
2013-04-12 07:25:00,38.2,31.2,29.79,North,0,0.0,0.0,76,0.00,,,0.00,WUHU216HW,2013-04-12 12:25:00,
2013-04-12 07:30:00,38.3,30.8,29.79,North,0,0.0,0.0,74,0.00,,,0.00,WUHU216HW,2013-04-12 12:30:00,
2013-04-12 07:36:00,38.5,31.0,29.79,North,0,0.0,0.0,74,0.00,,,0.00,WUHU216HW,2013-04-12 12:36:00,
2013-04-12 07:41:00,38.9,31.0,29.80,North,0,0.0,0.0,73,0.00,,,0.00,WUHU216HW,2013-04-12 12:41:00,
2013-04-12 07:46:00,39.1,30.8,29.80,North,0,0.0,0.0,72,0.00,,,0.00,WUHU216HW,2013-04-12 12:46:00,
2013-04-12 07:52:00,39.2,31.0,29.80,North,0,0.0,0.0,72,0.00,,,0.00,WUHU216HW,2013-04-12 12:52:00,
2013-04-12 07:57:00,39.4,30.8,29.80,North,0,0.0,0.0,71,0.00,,,0.00,WUHU216HW,2013-04-12 12:57:00,
2013-04-12 08:02:00,39.6,31.0,29.80,North,0,0.0,0.0,71,0.00,,,0.00,WUHU216HW,2013-04-12 13:02:00,
2013-04-12 08:07:00,39.8,30.8,29.80,North,0,0.0,0.0,70,0.00,,,0.00,WUHU216HW,2013-04-12 13:07:00,
2013-04-12 08:12:00,40.0,31.0,29.80,North,0,0.0,0.0,70,0.00,,,0.00,WUHU216HW,2013-04-12 13:12:00,
2013-04-12 08:17:00,40.1,31.1,29.80,North,0,0.0,0.0,70,0.00,,,0.00,WUHU216HW,2013-04-12 13:17:00,
2013-04-12 08:22:00,40.5,30.8,29.80,North,0,0.0,0.0,68,0.00,,,0.00,WUHU216HW,2013-04-12 13:22:00,
2013-04-12 08:27:00,40.7,31.0,29.80,North,0,0.0,0.0,68,0.00,,,0.00,WUHU216HW,2013-04-12 13:27:00,
2013-04-12 08:32:00,40.9,30.7,29.80,North,0,0.0,0.0,67,0.00,,,0.00,WUHU216HW,2013-04-12 13:32:00,
2013-04-12 08:37:00,41.2,31.1,29.80,North,0,0.0,0.0,67,0.00,,,0.00,WUHU216HW,2013-04-12 13:37:00,
2013-04-12 08:42:00,41.4,31.2,29.80,North,0,0.0,0.0,67,0.00,,,0.00,WUHU216HW,2013-04-12 13:42:00,
2013-04-12 08:47:00,41.6,31.4,29.80,North,0,0.0,0.0,67,0.00,,,0.00,WUHU216HW,2013-04-12 13:47:00,
2013-04-12 08:52:00,42.1,32.0,29.80,North,0,0.0,0.0,67,0.00,,,0.00,WUHU216HW,2013-04-12 13:52:00,
2013-04-12 08:57:00,42.5,32.0,29.80,North,0,0.0,0.0,66,0.00,,,0.00,WUHU216HW,2013-04-12 13:57:00,
2013-04-12 09:02:00,42.5,32.0,29.81,North,0,0.0,0.0,66,0.00,,,0.00,WUHU216HW,2013-04-12 14:02:00,
2013-04-12 09:07:00,43.0,32.1,29.81,North,0,0.0,0.0,65,0.00,,,0.00,WUHU216HW,2013-04-12 14:07:00,
2013-04-12 09:12:00,43.6,32.6,29.81,North,0,0.0,0.0,65,0.00,,,0.00,WUHU216HW,2013-04-12 14:12:00,
2013-04-12 09:17:00,43.9,32.5,29.80,North,0,0.0,0.0,64,0.00,,,0.00,WUHU216HW,2013-04-12 14:17:00,
2013-04-12 09:22:00,43.9,32.5,29.81,North,0,0.0,0.0,64,0.00,,,0.00,WUHU216HW,2013-04-12 14:22:00,
2013-04-12 09:27:00,43.9,32.5,29.81,North,0,0.0,0.0,64,0.00,,,0.00,WUHU216HW,2013-04-12 14:27:00,
2013-04-12 09:32:00,43.6,31.0,29.82,North,0,0.0,0.0,61,0.00,,,0.00,WUHU216HW,2013-04-12 14:32:00,
2013-04-12 09:37:00,43.4,31.6,29.82,North,0,0.0,0.0,63,0.00,,,0.00,WUHU216HW,2013-04-12 14:37:00,
2013-04-12 09:42:00,43.2,31.4,29.82,North,0,0.0,0.0,63,0.00,,,0.00,WUHU216HW,2013-04-12 14:42:00,
2013-04-12 09:47:00,43.2,31.4,29.82,North,0,0.0,0.0,63,0.00,,,0.00,WUHU216HW,2013-04-12 14:47:00,
2013-04-12 09:52:00,43.2,31.4,29.82,North,0,0.0,0.0,63,0.00,,,0.00,WUHU216HW,2013-04-12 14:52:00,
2013-04-12 09:58:00,43.0,31.2,29.82,North,0,0.0,0.0,63,0.00,,,0.00,WUHU216HW,2013-04-12 14:58:00,
2013-04-12 10:03:00,43.0,31.2,29.83,North,0,0.0,0.0,63,0.00,,,0.00,WUHU216HW,2013-04-12 15:03:00,
2013-04-12 10:08:00,43.2,31.4,29.83,North,0,0.0,0.0,63,0.00,,,0.00,WUHU216HW,2013-04-12 15:08:00,
2013-04-12 10:13:00,43.4,31.2,29.83,North,0,0.0,0.0,62,0.00,,,0.00,WUHU216HW,2013-04-12 15:13:00,
2013-04-12 10:18:00,43.0,30.9,29.84,North,0,0.0,0.0,62,0.00,,,0.00,WUHU216HW,2013-04-12 15:18:00,
2013-04-12 10:23:00,43.0,31.2,29.84,North,0,0.0,0.0,63,0.00,,,0.00,WUHU216HW,2013-04-12 15:23:00,
2013-04-12 10:28:00,42.8,31.5,29.84,North,0,0.0,0.0,64,0.00,,,0.00,WUHU216HW,2013-04-12 15:28:00,
2013-04-12 10:33:00,43.0,31.2,29.84,North,0,0.0,0.0,63,0.00,,,0.00,WUHU216HW,2013-04-12 15:33:00,
2013-04-12 10:38:00,43.2,31.4,29.84,North,0,0.0,0.0,63,0.00,,,0.00,WUHU216HW,2013-04-12 15:38:00,
2013-04-12 10:43:00,43.4,31.2,29.85,North,0,0.0,0.0,62,0.00,,,0.00,WUHU216HW,2013-04-12 15:43:00,
2013-04-12 10:48:00,43.4,31.6,29.85,North,0,0.0,0.0,63,0.00,,,0.00,WUHU216HW,2013-04-12 15:48:00,
2013-04-12 10:53:00,43.7,31.6,29.85,North,0,0.0,0.0,62,0.00,,,0.00,WUHU216HW,2013-04-12 15:53:00,
2013-04-12 10:58:00,43.6,31.4,29.85,North,0,0.0,0.0,62,0.00,,,0.00,WUHU216HW,2013-04-12 15:58:00,
2013-04-12 11:03:00,43.7,31.1,29.85,North,0,0.0,0.0,61,0.00,,,0.00,WUHU216HW,2013-04-12 16:03:00,
2013-04-12 11:08:00,43.7,31.1,29.86,North,0,0.0,0.0,61,0.00,,,0.00,WUHU216HW,2013-04-12 16:08:00,
2013-04-12 11:13:00,43.9,31.8,29.86,North,0,0.0,0.0,62,0.00,,,0.00,WUHU216HW,2013-04-12 16:13:00,
2013-04-12 11:18:00,43.9,31.3,29.86,North,0,0.0,0.0,61,0.00,,,0.00,WUHU216HW,2013-04-12 16:18:00,
2013-04-12 11:23:00,44.1,32.0,29.87,North,0,0.0,0.0,62,0.00,,,0.00,WUHU216HW,2013-04-12 16:23:00,
2013-04-12 11:28:00,44.3,32.0,29.87,North,0,0.0,0.0,62,0.00,,,0.00,WUHU216HW,2013-04-12 16:28:00,
2013-04-12 11:33:00,44.3,31.3,29.87,North,0,0.0,0.0,60,0.00,,,0.00,WUHU216HW,2013-04-12 16:33:00,
2013-04-12 11:38:00,44.1,31.5,29.87,North,0,0.0,0.0,61,0.00,,,0.00,WUHU216HW,2013-04-12 16:38:00,
2013-04-12 11:43:00,43.9,31.3,29.87,North,0,0.0,0.0,61,0.00,,,0.00,WUHU216HW,2013-04-12 16:43:00,
2013-04-12 11:48:00,44.3,31.3,29.87,North,0,0.0,0.0,60,0.00,,,0.00,WUHU216HW,2013-04-12 16:48:00,
2013-04-12 11:53:00,44.3,32.0,29.87,North,0,0.0,0.0,62,0.00,,,0.00,WUHU216HW,2013-04-12 16:53:00,
2013-04-12 11:58:00,44.3,31.7,29.88,North,0,0.0,0.0,61,0.00,,,0.00,WUHU216HW,2013-04-12 16:58:00,
2013-04-12 12:03:00,44.3,31.3,29.87,North,0,0.0,0.0,60,0.00,,,0.00,WUHU216HW,2013-04-12 17:03:00,
2013-04-12 12:08:00,44.6,32.0,29.87,North,0,0.0,0.0,61,0.00,,,0.00,WUHU216HW,2013-04-12 17:08:00,
2013-04-12 12:13:00,44.8,32.2,29.87,North,0,0.0,0.0,61,0.00,,,0.00,WUHU216HW,2013-04-12 17:13:00,
2013-04-12 12:18:00,45.2,32.1,29.88,North,0,0.0,0.0,60,0.00,,,0.00,WUHU216HW,2013-04-12 17:18:00,
2013-04-12 12:23:00,45.0,32.1,29.88,North,0,0.0,0.0,60,0.00,,,0.00,WUHU216HW,2013-04-12 17:23:00,
2013-04-12 12:28:00,44.6,32.0,29.88,North,0,0.0,0.0,61,0.00,,,0.00,WUHU216HW,2013-04-12 17:28:00,
2013-04-12 12:33:00,45.0,32.1,29.88,North,0,0.0,0.0,60,0.00,,,0.00,WUHU216HW,2013-04-12 17:33:00,
2013-04-12 12:38:00,45.9,32.9,29.88,North,0,0.0,0.0,60,0.00,,,0.00,WUHU216HW,2013-04-12 17:38:00,
2013-04-12 12:43:00,46.1,32.9,29.88,North,0,0.0,0.0,60,0.00,,,0.00,WUHU216HW,2013-04-12 17:43:00,
2013-04-12 12:49:00,46.8,34.0,29.89,North,0,0.0,0.0,61,0.00,,,0.00,WUHU216HW,2013-04-12 17:49:00,
2013-04-12 12:54:00,46.8,32.8,29.89,North,0,0.0,0.0,58,0.00,,,0.00,WUHU216HW,2013-04-12 17:54:00,
2013-04-12 12:59:00,46.1,32.0,29.89,North,0,0.0,0.0,58,0.00,,,0.00,WUHU216HW,2013-04-12 17:59:00,
2013-04-12 13:04:00,46.1,31.6,29.90,North,0,0.0,0.0,57,0.00,,,0.00,WUHU216HW,2013-04-12 18:04:00,
2013-04-12 13:09:00,45.9,32.4,29.89,North,0,0.0,0.0,59,0.00,,,0.00,WUHU216HW,2013-04-12 18:09:00,
2013-04-12 13:14:00,46.1,32.0,29.89,North,0,0.0,0.0,58,0.00,,,0.00,WUHU216HW,2013-04-12 18:14:00,
2013-04-12 13:20:00,46.3,33.1,29.90,North,0,0.0,0.0,60,0.00,,,0.00,WUHU216HW,2013-04-12 18:20:00,
2013-04-12 13:25:00,46.6,33.5,29.89,North,0,0.0,0.0,60,0.00,,,0.00,WUHU216HW,2013-04-12 18:25:00,
2013-04-12 13:29:00,46.6,32.1,29.90,North,0,0.0,0.0,57,0.00,,,0.00,WUHU216HW,2013-04-12 18:29:00,
2013-04-12 13:35:00,46.3,32.2,29.90,North,0,0.0,0.0,58,0.00,,,0.00,WUHU216HW,2013-04-12 18:35:00,
2013-04-12 13:47:00,46.6,32.6,29.90,North,0,0.0,0.0,58,0.00,,,0.00,WUHU216HW,2013-04-12 18:47:00,
2013-04-12 13:53:00,46.4,32.0,29.90,North,0,0.0,0.0,57,0.00,,,0.00,WUHU216HW,2013-04-12 18:53:00,
2013-04-12 13:59:00,46.4,32.0,29.91,North,0,0.0,0.0,57,0.00,,,0.00,WUHU216HW,2013-04-12 18:59:00,
2013-04-12 14:05:00,46.4,32.0,29.91,North,0,0.0,0.0,57,0.00,,,0.00,WUHU216HW,2013-04-12 19:05:00,
2013-04-12 14:11:00,46.1,31.6,29.91,North,0,0.0,0.0,57,0.00,,,0.00,WUHU216HW,2013-04-12 19:11:00,
2013-04-12 14:26:00,46.4,32.9,29.92,North,0,0.0,0.0,59,0.00,,,0.00,WUHU216HW,2013-04-12 19:26:00,
2013-04-12 14:31:00,46.1,32.0,29.92,North,0,0.0,0.0,58,0.00,,,0.00,WUHU216HW,2013-04-12 19:31:00,
2013-04-12 14:37:00,46.1,32.0,29.92,North,0,0.0,0.0,58,0.00,,,0.00,WUHU216HW,2013-04-12 19:37:00,
2013-04-12 14:42:00,46.1,32.5,29.92,North,0,0.0,0.0,59,0.00,,,0.00,WUHU216HW,2013-04-12 19:42:00,
2013-04-12 14:47:00,46.3,32.7,29.93,North,0,0.0,0.0,59,0.00,,,0.00,WUHU216HW,2013-04-12 19:47:00,
2013-04-12 14:52:00,46.3,32.2,29.92,North,0,0.0,0.0,58,0.00,,,0.00,WUHU216HW,2013-04-12 19:52:00,
2013-04-12 14:57:00,46.1,32.5,29.93,North,0,0.0,0.0,59,0.00,,,0.00,WUHU216HW,2013-04-12 19:57:00,
2013-04-12 15:02:00,46.3,33.1,29.92,North,0,0.0,0.0,60,0.00,,,0.00,WUHU216HW,2013-04-12 20:02:00,
2013-04-12 15:07:00,46.3,32.7,29.93,North,0,0.0,0.0,59,0.00,,,0.00,WUHU216HW,2013-04-12 20:07:00,
2013-04-12 15:12:00,46.1,32.0,29.92,North,0,0.0,0.0,58,0.00,,,0.00,WUHU216HW,2013-04-12 20:12:00,
2013-04-12 15:17:00,45.9,32.9,29.92,North,0,0.0,0.0,60,0.00,,,0.00,WUHU216HW,2013-04-12 20:17:00,
2013-04-12 15:22:00,46.1,32.5,29.93,North,0,0.0,0.0,59,0.00,,,0.00,WUHU216HW,2013-04-12 20:22:00,
2013-04-12 15:27:00,46.3,32.7,29.93,North,0,0.0,0.0,59,0.00,,,0.00,WUHU216HW,2013-04-12 20:27:00,
2013-04-12 15:32:00,46.1,32.0,29.93,North,0,0.0,0.0,58,0.00,,,0.00,WUHU216HW,2013-04-12 20:32:00,
2013-04-12 15:37:00,46.3,32.7,29.93,North,0,0.0,0.0,59,0.00,,,0.00,WUHU216HW,2013-04-12 20:37:00,
2013-04-12 15:42:00,46.1,32.5,29.93,North,0,0.0,0.0,59,0.00,,,0.00,WUHU216HW,2013-04-12 20:42:00,
2013-04-12 15:47:00,46.1,32.5,29.93,North,0,0.0,0.0,59,0.00,,,0.00,WUHU216HW,2013-04-12 20:47:00,
2013-04-12 15:52:00,45.7,32.2,29.93,North,0,0.0,0.0,59,0.00,,,0.00,WUHU216HW,2013-04-12 20:52:00,
2013-04-12 15:57:00,45.7,33.0,29.92,North,0,0.0,0.0,61,0.00,,,0.00,WUHU216HW,2013-04-12 20:57:00,
2013-04-12 16:02:00,45.7,32.7,29.93,North,0,0.0,0.0,60,0.00,,,0.00,WUHU216HW,2013-04-12 21:02:00,
2013-04-12 16:07:00,45.9,32.9,29.93,North,0,0.0,0.0,60,0.00,,,0.00,WUHU216HW,2013-04-12 21:07:00,
2013-04-12 16:12:00,45.9,32.9,29.93,North,0,0.0,0.0,60,0.00,,,0.00,WUHU216HW,2013-04-12 21:12:00,
2013-04-12 16:17:00,46.1,33.4,29.93,North,0,0.0,0.0,61,0.00,,,0.00,WUHU216HW,2013-04-12 21:17:00,
2013-04-12 16:23:00,46.1,32.9,29.93,North,0,0.0,0.0,60,0.00,,,0.00,WUHU216HW,2013-04-12 21:23:00,
2013-04-12 16:28:00,45.9,32.9,29.93,North,0,0.0,0.0,60,0.00,,,0.00,WUHU216HW,2013-04-12 21:28:00,
2013-04-12 16:33:00,45.7,32.7,29.93,North,0,0.0,0.0,60,0.00,,,0.00,WUHU216HW,2013-04-12 21:33:00,
2013-04-12 16:38:00,45.7,32.7,29.93,North,0,0.0,0.0,60,0.00,,,0.00,WUHU216HW,2013-04-12 21:38:00,
2013-04-12 16:43:00,45.7,32.7,29.93,North,0,0.0,0.0,60,0.00,,,0.00,WUHU216HW,2013-04-12 21:43:00,
2013-04-12 16:48:00,45.7,33.0,29.93,North,0,0.0,0.0,61,0.00,,,0.00,WUHU216HW,2013-04-12 21:48:00,
2013-04-12 16:52:00,45.7,32.7,29.94,North,0,0.0,0.0,60,0.00,,,0.00,WUHU216HW,2013-04-12 21:52:00,
2013-04-12 16:57:00,45.7,33.4,29.94,North,0,0.0,0.0,62,0.00,,,0.00,WUHU216HW,2013-04-12 21:57:00,
2013-04-12 17:02:00,45.7,33.4,29.94,North,0,0.0,0.0,62,0.00,,,0.00,WUHU216HW,2013-04-12 22:02:00,
2013-04-12 17:07:00,45.9,33.6,29.94,North,0,0.0,0.0,62,0.00,,,0.00,WUHU216HW,2013-04-12 22:07:00,
2013-04-12 17:13:00,45.9,33.2,29.94,North,0,0.0,0.0,61,0.00,,,0.00,WUHU216HW,2013-04-12 22:13:00,
2013-04-12 17:18:00,45.7,33.0,29.95,North,0,0.0,0.0,61,0.00,,,0.00,WUHU216HW,2013-04-12 22:18:00,
2013-04-12 17:23:00,45.7,33.0,29.95,North,0,0.0,0.0,61,0.00,,,0.00,WUHU216HW,2013-04-12 22:23:00,
2013-04-12 17:28:00,45.7,33.0,29.95,North,0,0.0,0.0,61,0.00,,,0.00,WUHU216HW,2013-04-12 22:28:00,
2013-04-12 17:33:00,45.7,33.0,29.95,North,0,0.0,0.0,61,0.00,,,0.00,WUHU216HW,2013-04-12 22:33:00,
2013-04-12 17:38:00,45.5,33.3,29.95,North,0,0.0,0.0,62,0.00,,,0.00,WUHU216HW,2013-04-12 22:38:00,
2013-04-12 17:43:00,45.7,33.4,29.95,North,0,0.0,0.0,62,0.00,,,0.00,WUHU216HW,2013-04-12 22:43:00,
2013-04-12 17:48:00,45.5,32.9,29.95,North,0,0.0,0.0,61,0.00,,,0.00,WUHU216HW,2013-04-12 22:48:00,
2013-04-12 17:53:00,45.7,33.4,29.95,North,0,0.0,0.0,62,0.00,,,0.00,WUHU216HW,2013-04-12 22:53:00,
2013-04-12 17:58:00,45.5,32.9,29.95,North,0,0.0,0.0,61,0.00,,,0.00,WUHU216HW,2013-04-12 22:58:00,
2013-04-12 18:03:00,45.5,33.3,29.95,North,0,0.0,0.0,62,0.00,,,0.00,WUHU216HW,2013-04-12 23:03:00,
2013-04-12 18:08:00,45.5,32.9,29.96,North,0,0.0,0.0,61,0.00,,,0.00,WUHU216HW,2013-04-12 23:08:00,
2013-04-12 18:13:00,45.4,33.1,29.96,North,0,0.0,0.0,62,0.00,,,0.00,WUHU216HW,2013-04-12 23:13:00,
2013-04-12 18:18:00,45.2,32.6,29.96,North,0,0.0,0.0,61,0.00,,,0.00,WUHU216HW,2013-04-12 23:18:00,
2013-04-12 18:23:00,45.2,33.0,29.96,North,0,0.0,0.0,62,0.00,,,0.00,WUHU216HW,2013-04-12 23:23:00,
2013-04-12 18:28:00,45.4,33.1,29.96,North,0,0.0,0.0,62,0.00,,,0.00,WUHU216HW,2013-04-12 23:28:00,
2013-04-12 18:33:00,45.2,33.0,29.96,North,0,0.0,0.0,62,0.00,,,0.00,WUHU216HW,2013-04-12 23:33:00,
2013-04-12 18:38:00,45.2,33.0,29.96,North,0,0.0,0.0,62,0.00,,,0.00,WUHU216HW,2013-04-12 23:38:00,
2013-04-12 18:43:00,45.4,33.5,29.96,North,0,0.0,0.0,63,0.00,,,0.00,WUHU216HW,2013-04-12 23:43:00,
2013-04-12 18:48:00,45.4,33.1,29.96,North,0,0.0,0.0,62,0.00,,,0.00,WUHU216HW,2013-04-12 23:48:00,
2013-04-12 18:53:00,45.4,33.1,29.97,North,0,0.0,0.0,62,0.00,,,0.00,WUHU216HW,2013-04-12 23:53:00,
2013-04-12 18:58:00,45.0,32.8,29.97,North,0,0.0,0.0,62,0.00,,,0.00,WUHU216HW,2013-04-12 23:58:00,
2013-04-12 19:03:00,45.0,33.1,29.97,North,0,0.0,0.0,63,0.00,,,0.00,WUHU216HW,2013-04-13 00:03:00,
2013-04-12 19:08:00,45.0,33.1,29.97,North,0,0.0,0.0,63,0.00,,,0.00,WUHU216HW,2013-04-13 00:08:00,
2013-04-12 19:13:00,45.0,33.1,29.97,North,0,0.0,0.0,63,0.00,,,0.00,WUHU216HW,2013-04-13 00:13:00,
2013-04-12 19:18:00,45.0,33.1,29.97,North,0,0.0,0.0,63,0.00,,,0.00,WUHU216HW,2013-04-13 00:18:00,
2013-04-12 19:23:00,44.8,32.9,29.97,North,0,0.0,0.0,63,0.00,,,0.00,WUHU216HW,2013-04-13 00:23:00,
2013-04-12 19:28:00,44.6,32.9,29.97,North,0,0.0,0.0,63,0.00,,,0.00,WUHU216HW,2013-04-13 00:28:00,
2013-04-12 19:33:00,44.6,32.9,29.97,North,0,0.0,0.0,63,0.00,,,0.00,WUHU216HW,2013-04-13 00:33:00,
2013-04-12 19:38:00,44.6,32.9,29.97,North,0,0.0,0.0,63,0.00,,,0.00,WUHU216HW,2013-04-13 00:38:00,
2013-04-12 19:43:00,44.6,32.9,29.97,North,0,0.0,0.0,63,0.00,,,0.00,WUHU216HW,2013-04-13 00:43:00,
2013-04-12 19:48:00,44.5,32.7,29.97,North,0,0.0,0.0,63,0.00,,,0.00,WUHU216HW,2013-04-13 00:48:00,
2013-04-12 19:53:00,44.6,32.9,29.98,North,0,0.0,0.0,63,0.00,,,0.00,WUHU216HW,2013-04-13 00:53:00,
2013-04-12 19:58:00,44.5,32.7,29.97,North,0,0.0,0.0,63,0.00,,,0.00,WUHU216HW,2013-04-13 00:58:00,
2013-04-12 20:03:00,44.5,32.7,29.97,North,0,0.0,0.0,63,0.00,,,0.00,WUHU216HW,2013-04-13 01:03:00,
2013-04-12 20:08:00,44.5,33.0,29.97,North,0,0.0,0.0,64,0.00,,,0.00,WUHU216HW,2013-04-13 01:08:00,
2013-04-12 20:13:00,44.6,33.2,29.98,North,0,0.0,0.0,64,0.00,,,0.00,WUHU216HW,2013-04-13 01:13:00,
2013-04-12 20:18:00,44.5,32.7,29.98,North,0,0.0,0.0,63,0.00,,,0.00,WUHU216HW,2013-04-13 01:18:00,
2013-04-12 20:23:00,44.5,33.0,29.98,North,0,0.0,0.0,64,0.00,,,0.00,WUHU216HW,2013-04-13 01:23:00,
2013-04-12 20:28:00,44.5,33.0,29.98,North,0,0.0,0.0,64,0.00,,,0.00,WUHU216HW,2013-04-13 01:28:00,
2013-04-12 20:33:00,44.6,33.2,29.98,North,0,0.0,0.0,64,0.00,,,0.00,WUHU216HW,2013-04-13 01:33:00,
2013-04-12 20:39:00,44.6,33.2,29.98,North,0,0.0,0.0,64,0.00,,,0.00,WUHU216HW,2013-04-13 01:39:00,
2013-04-12 20:44:00,44.6,33.2,29.98,North,0,0.0,0.0,64,0.00,,,0.00,WUHU216HW,2013-04-13 01:44:00,
2013-04-12 20:49:00,44.6,33.2,29.99,North,0,0.0,0.0,64,0.00,,,0.00,WUHU216HW,2013-04-13 01:49:00,
2013-04-12 20:54:00,44.6,33.6,29.99,North,0,0.0,0.0,65,0.00,,,0.00,WUHU216HW,2013-04-13 01:54:00,
2013-04-12 20:59:00,44.6,33.2,29.99,North,0,0.0,0.0,64,0.00,,,0.00,WUHU216HW,2013-04-13 01:59:00,
2013-04-12 21:04:00,44.6,33.2,29.99,North,0,0.0,0.0,64,0.00,,,0.00,WUHU216HW,2013-04-13 02:04:00,
2013-04-12 21:09:00,44.6,33.2,29.99,North,0,0.0,0.0,64,0.00,,,0.00,WUHU216HW,2013-04-13 02:09:00,
2013-04-12 21:14:00,44.6,33.6,30.00,North,0,0.0,0.0,65,0.00,,,0.00,WUHU216HW,2013-04-13 02:14:00,
2013-04-12 21:19:00,44.6,33.6,29.99,North,0,0.0,0.0,65,0.00,,,0.00,WUHU216HW,2013-04-13 02:19:00,
2013-04-12 21:24:00,44.6,33.6,29.99,North,0,0.0,0.0,65,0.00,,,0.00,WUHU216HW,2013-04-13 02:24:00,
2013-04-12 21:29:00,44.6,33.6,29.99,North,0,0.0,0.0,65,0.00,,,0.00,WUHU216HW,2013-04-13 02:29:00,
2013-04-12 21:34:00,44.5,33.8,29.99,North,0,0.0,0.0,66,0.00,,,0.00,WUHU216HW,2013-04-13 02:34:00,
2013-04-12 21:39:00,44.5,33.4,30.00,North,0,0.0,0.0,65,0.00,,,0.00,WUHU216HW,2013-04-13 02:39:00,
2013-04-12 21:44:00,44.5,33.4,30.00,North,0,0.0,0.0,65,0.00,,,0.00,WUHU216HW,2013-04-13 02:44:00,
2013-04-12 21:49:00,44.5,33.4,30.00,North,0,0.0,0.0,65,0.00,,,0.00,WUHU216HW,2013-04-13 02:49:00,
2013-04-12 21:54:00,44.5,33.8,30.00,North,0,0.0,0.0,66,0.00,,,0.00,WUHU216HW,2013-04-13 02:54:00,
2013-04-12 21:59:00,44.5,33.8,30.00,North,0,0.0,0.0,66,0.00,,,0.00,WUHU216HW,2013-04-13 02:59:00,
2013-04-12 22:04:00,44.3,33.6,30.01,North,0,0.0,0.0,66,0.00,,,0.00,WUHU216HW,2013-04-13 03:04:00,
2013-04-12 22:09:00,44.3,33.6,30.00,North,0,0.0,0.0,66,0.00,,,0.00,WUHU216HW,2013-04-13 03:09:00,
2013-04-12 22:14:00,44.3,34.0,30.01,North,0,0.0,0.0,67,0.00,,,0.00,WUHU216HW,2013-04-13 03:14:00,
2013-04-12 22:19:00,44.3,33.6,30.01,North,0,0.0,0.0,66,0.00,,,0.00,WUHU216HW,2013-04-13 03:19:00,
2013-04-12 22:24:00,44.3,33.6,30.01,North,0,0.0,0.0,66,0.00,,,0.00,WUHU216HW,2013-04-13 03:24:00,
2013-04-12 22:29:00,44.3,34.0,30.01,North,0,0.0,0.0,67,0.00,,,0.00,WUHU216HW,2013-04-13 03:29:00,
2013-04-12 22:34:00,44.1,33.9,30.01,North,0,0.0,0.0,67,0.00,,,0.00,WUHU216HW,2013-04-13 03:34:00,
2013-04-12 22:39:00,44.1,33.9,30.01,North,0,0.0,0.0,67,0.00,,,0.00,WUHU216HW,2013-04-13 03:39:00,
2013-04-12 22:44:00,44.1,33.9,30.01,North,0,0.0,0.0,67,0.00,,,0.00,WUHU216HW,2013-04-13 03:44:00,
2013-04-12 22:49:00,43.9,34.0,30.01,North,0,0.0,0.0,68,0.00,,,0.00,WUHU216HW,2013-04-13 03:49:00,
2013-04-12 22:54:00,43.7,33.8,30.01,North,0,0.0,0.0,68,0.00,,,0.00,WUHU216HW,2013-04-13 03:54:00,
2013-04-12 22:59:00,43.6,33.8,30.01,North,0,0.0,0.0,68,0.00,,,0.00,WUHU216HW,2013-04-13 03:59:00,
2013-04-12 23:00:00,43.6,33.8,30.01,North,0,0.0,0.0,68,0.00,,,0.00,WUHU216HW,2013-04-13 04:00:00,
2013-04-12 23:05:00,43.4,33.6,30.01,North,0,0.0,0.0,68,0.00,,,0.00,WUHU216HW,2013-04-13 04:05:00,
2013-04-12 23:10:00,43.0,33.2,30.01,North,0,0.0,0.0,68,0.00,,,0.00,WUHU216HW,2013-04-13 04:10:00,
2013-04-12 23:15:00,42.8,33.0,30.01,North,0,0.0,0.0,68,0.00,,,0.00,WUHU216HW,2013-04-13 04:15:00,
2013-04-12 23:20:00,42.5,32.7,30.01,North,0,0.0,0.0,68,0.00,,,0.00,WUHU216HW,2013-04-13 04:20:00,
2013-04-12 23:25:00,42.5,33.1,30.01,North,0,0.0,0.0,69,0.00,,,0.00,WUHU216HW,2013-04-13 04:25:00,
2013-04-12 23:30:00,42.3,33.0,30.01,North,0,0.0,0.0,69,0.00,,,0.00,WUHU216HW,2013-04-13 04:30:00,
2013-04-12 23:35:00,42.1,32.8,30.01,North,0,0.0,0.0,69,0.00,,,0.00,WUHU216HW,2013-04-13 04:35:00,
2013-04-12 23:40:00,42.1,33.1,30.01,North,0,0.0,0.0,70,0.00,,,0.00,WUHU216HW,2013-04-13 04:40:00,
2013-04-12 23:45:00,41.8,32.4,30.01,North,0,0.0,0.0,69,0.00,,,0.00,WUHU216HW,2013-04-13 04:45:00,
2013-04-12 23:50:00,41.6,32.2,30.02,North,0,0.0,0.0,69,0.00,,,0.00,WUHU216HW,2013-04-13 04:50:00,
2013-04-12 23:55:00,41.4,32.1,30.02,North,0,0.0,0.0,69,0.00,,,0.00,WUHU216HW,2013-04-13 04:55:00,